| time (UTC) | temp F | wind direction | speed MPH | gust MPH | rain 1hr in | rain 24hr in | rain mn in | humidity % | barometer mb |
| 20260905171149 | 75 | 195 | 0.0 | 3.0 | 0.00 | 0.00 | 0.00 | 82 | 1018.4 |
| 20260905170647 | 75 | 152 | 1.0 | 3.0 | 0.00 | 0.00 | 0.00 | 84 | 1018.5 |
| 20260905170141 | 74 | 190 | 2.0 | 6.0 | 0.00 | 0.00 | 0.00 | 84 | 1018.2 |
| 20260905165641 | 74 | 181 | 2.0 | 3.0 | 0.00 | 0.00 | 0.00 | 85 | 1018.5 |
| 20260905165136 | 74 | 175 | 3.0 | 6.0 | 0.00 | 0.00 | 0.00 | 85 | 1018.4 |
| 20260905164631 | 73 | 124 | 1.0 | 3.0 | 0.00 | 0.00 | 0.00 | 86 | 1018.3 |
| 20260905164130 | 74 | 113 | 3.0 | 5.0 | 0.00 | 0.00 | 0.00 | 85 | 1018.6 |
| 20260905163627 | 74 | 138 | 1.0 | 2.0 | 0.00 | 0.00 | 0.00 | 85 | 1018.6 |
| 20260905163123 | 74 | 131 | 0.0 | 3.0 | 0.00 | 0.00 | 0.00 | 86 | 1018.5 |
| 20260905162619 | 74 | 180 | 1.0 | 3.0 | 0.00 | 0.00 | 0.00 | 86 | 1018.3 |
| 20260905162118 | 74 | 154 | 2.0 | 3.0 | 0.00 | 0.00 | 0.00 | 85 | 1018.6 |
| 20260905161618 | 74 | 145 | 2.0 | 3.0 | 0.00 | 0.00 | 0.00 | 86 | 1018.5 |
| 20260905161115 | 73 | 177 | 2.0 | 3.0 | 0.00 | 0.00 | 0.00 | 86 | 1018.2 |
| 20260905160615 | 73 | 156 | 0.0 | 1.0 | 0.00 | 0.00 | 0.00 | 88 | 1018.5 |
| 20260905160109 | 73 | 159 | 1.0 | 2.0 | 0.00 | 0.00 | 0.00 | 88 | 1018.2 |
| 20260905155604 | 72 | 116 | 1.0 | 3.0 | 0.00 | 0.00 | 0.00 | 88 | 1018.3 |
| 20260905155103 | 72 | 154 | 0.0 | 1.0 | 0.00 | 0.00 | 0.00 | 89 | 1018.1 |
| 20260905154557 | 72 | 154 | 1.0 | 2.0 | 0.00 | 0.00 | 0.00 | 90 | 1018.3 |
| 20260905154053 | 71 | 162 | 0.0 | 1.0 | 0.00 | 0.00 | 0.00 | 90 | 1018.5 |
| 20260905153549 | 71 | 178 | 0.0 | 2.0 | 0.00 | 0.00 | 0.00 | 90 | 1018.3 |
| 20260905153048 | 71 | 181 | 0.0 | 1.0 | 0.00 | 0.00 | 0.00 | 91 | 1018.6 |
| 20260905152543 | 71 | 139 | 0.0 | 0.0 | 0.00 | 0.00 | 0.00 | 91 | 1018.5 |
| 20260905152038 | 71 | 139 | 1.0 | 1.0 | 0.00 | 0.00 | 0.00 | 91 | 1018.1 |
| 20260905151533 | 71 | 150 | 2.0 | 2.0 | 0.00 | 0.00 | 0.00 | 92 | 1017.9 |
| 20260905151029 | 70 | 116 | 1.0 | 2.0 | 0.00 | 0.00 | 0.00 | 92 | 1017.9 |
| 20260905150524 | 70 | 132 | 1.0 | 2.0 | 0.00 | 0.00 | 0.00 | 92 | 1017.8 |
| 20260905150021 | 70 | 95 | 3.0 | 3.0 | 0.00 | 0.00 | 0.00 | 92 | 1017.8 |
| 20260905145514 | 70 | 101 | 0.0 | 3.0 | 0.00 | 0.00 | 0.00 | 93 | 1017.7 |
| 20260905145009 | 70 | 133 | 2.0 | 3.0 | 0.00 | 0.00 | 0.00 | 93 | 1017.7 |
| 20260905144504 | 70 | 127 | 1.0 | 5.0 | 0.00 | 0.00 | 0.00 | 94 | 1017.7 |
| 20260905144003 | 70 | 149 | 1.0 | 2.0 | 0.00 | 0.00 | 0.00 | 95 | 1017.5 |
| 20260905143502 | 69 | 141 | 1.0 | 1.0 | 0.00 | 0.00 | 0.00 | 95 | 1017.7 |
| 20260905142957 | 69 | 171 | 0.0 | 3.0 | 0.00 | 0.00 | 0.00 | 96 | 1017.9 |
| 20260905142456 | 69 | 97 | 0.0 | 2.0 | 0.00 | 0.00 | 0.00 | 96 | 1017.9 |
| 20260905141951 | 69 | 87 | 2.0 | 2.0 | 0.00 | 0.00 | 0.00 | 96 | 1017.8 |
| 20260905141446 | 69 | 87 | 0.0 | 3.0 | 0.00 | 0.00 | 0.00 | 96 | 1017.5 |
| 20260905140943 | 69 | 87 | 2.0 | 2.0 | 0.00 | 0.00 | 0.00 | 96 | 1017.8 |
| 20260905140437 | 69 | 122 | 1.0 | 2.0 | 0.00 | 0.00 | 0.00 | 96 | 1017.5 |
| 20260905135936 | 69 | 122 | 0.0 | 2.0 | 0.00 | 0.00 | 0.00 | 97 | 1017.9 |
| 20260905135431 | 69 | 122 | 0.0 | 0.0 | 0.00 | 0.00 | 0.00 | 97 | 1018.0 |
| 20260905134921 | 69 | 122 | 1.0 | 1.0 | 0.00 | 0.00 | 0.00 | 97 | 1017.9 |
| 20260905134420 | 69 | 122 | 0.0 | 0.0 | 0.00 | 0.00 | 0.00 | 97 | 1018.1 |
| 20260905133914 | 69 | 122 | 0.0 | 0.0 | 0.00 | 0.00 | 0.00 | 97 | 1017.8 |
| 20260905133409 | 69 | 122 | 0.0 | 1.0 | 0.00 | 0.00 | 0.00 | 97 | 1018.1 |
| 20260905132909 | 68 | 122 | 0.0 | 0.0 | 0.00 | 0.00 | 0.00 | 97 | 1017.9 |
| 20260905132404 | 68 | 122 | 0.0 | 0.0 | 0.00 | 0.00 | 0.00 | 97 | 1017.5 |
| 20260905131859 | 68 | 122 | 0.0 | 1.0 | 0.00 | 0.00 | 0.00 | 97 | 1017.5 |
| 20260905131355 | 68 | 122 | 0.0 | 0.0 | 0.00 | 0.00 | 0.00 | 97 | 1017.4 |
| 20260905130850 | 68 | 122 | 0.0 | 0.0 | 0.00 | 0.00 | 0.00 | 97 | 1017.3 |
| 20260905130348 | 68 | 122 | 1.0 | 1.0 | 0.00 | 0.00 | 0.00 | 97 | 1017.1 |
| 20260905125844 | 68 | 122 | 0.0 | 0.0 | 0.00 | 0.00 | 0.00 | 97 | 1016.9 |
| 20260905125338 | 68 | 122 | 0.0 | 1.0 | 0.00 | 0.00 | 0.00 | 97 | 1016.7 |
| 20260905124834 | 68 | 122 | 0.0 | 0.0 | 0.00 | 0.00 | 0.00 | 97 | 1016.5 |
| 20260905124331 | 68 | 122 | 0.0 | 2.0 | 0.00 | 0.00 | 0.00 | 97 | 1016.2 |
| 20260905123830 | 68 | 122 | 1.0 | 2.0 | 0.00 | 0.00 | 0.00 | 97 | 1016.2 |
| 20260905123328 | 68 | 122 | 0.0 | 1.0 | 0.00 | 0.00 | 0.00 | 97 | 1015.9 |
| 20260905122827 | 68 | 122 | 1.0 | 2.0 | 0.00 | 0.00 | 0.00 | 96 | 1016.1 |
| 20260905122326 | 68 | 137 | 0.0 | 1.0 | 0.00 | 0.00 | 0.00 | 96 | 1016.2 |
| 20260905121822 | 68 | 137 | 0.0 | 1.0 | 0.00 | 0.00 | 0.00 | 96 | 1016.6 |
| 20260905121319 | 68 | 137 | 0.0 | 0.0 | 0.00 | 0.00 | 0.00 | 96 | 1016.3 |
| 20260905120817 | 68 | 137 | 0.0 | 0.0 | 0.00 | 0.00 | 0.00 | 96 | 1016.5 |
| 20260905120312 | 68 | 137 | 1.0 | 1.0 | 0.00 | 0.00 | 0.00 | 96 | 1016.6 |
| 20260905115807 | 68 | 138 | 0.0 | 0.0 | 0.00 | 0.00 | 0.00 | 96 | 1016.7 |
| 20260905115306 | 68 | 138 | 0.0 | 0.0 | 0.00 | 0.00 | 0.00 | 96 | 1016.6 |
| 20260905114806 | 68 | 138 | 0.0 | 1.0 | 0.00 | 0.00 | 0.00 | 96 | 1016.4 |
| 20260905114305 | 67 | 138 | 0.0 | 1.0 | 0.00 | 0.00 | 0.00 | 96 | 1016.4 |
| 20260905113759 | 67 | 138 | 0.0 | 1.0 | 0.00 | 0.00 | 0.00 | 96 | 1016.3 |
| 20260905113255 | 67 | 138 | 0.0 | 0.0 | 0.00 | 0.00 | 0.00 | 96 | 1016.2 |
| 20260905112750 | 67 | 138 | 0.0 | 1.0 | 0.00 | 0.00 | 0.00 | 96 | 1016.2 |
| 20260905112250 | 67 | 138 | 0.0 | 0.0 | 0.00 | 0.00 | 0.00 | 96 | 1016.2 |
| 20260905111745 | 67 | 138 | 0.0 | 0.0 | 0.00 | 0.00 | 0.00 | 95 | 1016.0 |
| 20260905111239 | 67 | 138 | 0.0 | 1.0 | 0.00 | 0.00 | 0.00 | 95 | 1016.2 |
| 20260905110739 | 67 | 138 | 0.0 | 1.0 | 0.00 | 0.00 | 0.00 | 95 | 1016.1 |
| 20260905110233 | 67 | 138 | 1.0 | 1.0 | 0.00 | 0.00 | 0.00 | 95 | 1016.2 |
| 20260905105728 | 67 | 138 | 0.0 | 1.0 | 0.00 | 0.00 | 0.00 | 95 | 1016.3 |
| 20260905105227 | 67 | 139 | 0.0 | 1.0 | 0.00 | 0.00 | 0.00 | 95 | 1016.1 |
| 20260905104722 | 67 | 139 | 0.0 | 1.0 | 0.00 | 0.00 | 0.00 | 95 | 1016.1 |
| 20260905104219 | 67 | 140 | 0.0 | 0.0 | 0.00 | 0.00 | 0.00 | 95 | 1016.2 |
| 20260905103713 | 67 | 149 | 1.0 | 2.0 | 0.00 | 0.00 | 0.00 | 95 | 1016.0 |
| 20260905103209 | 67 | 134 | 1.0 | 3.0 | 0.00 | 0.00 | 0.00 | 94 | 1016.2 |
| 20260905102704 | 67 | 116 | 0.0 | 1.0 | 0.00 | 0.00 | 0.00 | 94 | 1016.0 |
| 20260905102201 | 67 | 116 | 1.0 | 2.0 | 0.00 | 0.00 | 0.00 | 94 | 1016.0 |
| 20260905101659 | 67 | 119 | 0.0 | 2.0 | 0.00 | 0.00 | 0.00 | 94 | 1016.0 |
| 20260905101158 | 67 | 127 | 1.0 | 3.0 | 0.00 | 0.00 | 0.00 | 94 | 1015.9 |
| 20260905100654 | 68 | 161 | 1.0 | 2.0 | 0.00 | 0.00 | 0.00 | 93 | 1016.0 |
| 20260905100149 | 68 | 145 | 1.0 | 2.0 | 0.00 | 0.00 | 0.00 | 93 | 1016.0 |
| 20260905095648 | 68 | 143 | 1.0 | 2.0 | 0.00 | 0.00 | 0.00 | 93 | 1015.6 |
| 20260905095143 | 68 | 156 | 1.0 | 2.0 | 0.00 | 0.00 | 0.00 | 93 | 1015.5 |
| 20260905094638 | 68 | 124 | 2.0 | 3.0 | 0.00 | 0.00 | 0.00 | 92 | 1015.2 |
| 20260905094137 | 68 | 152 | 1.0 | 2.0 | 0.00 | 0.00 | 0.00 | 92 | 1015.0 |
| 20260905093632 | 68 | 289 | 1.0 | 2.0 | 0.00 | 0.00 | 0.00 | 92 | 1015.2 |
| 20260905093129 | 68 | 180 | 1.0 | 3.0 | 0.00 | 0.00 | 0.00 | 92 | 1015.3 |
| 20260905092629 | 68 | 58 | 1.0 | 2.0 | 0.00 | 0.00 | 0.00 | 92 | 1015.0 |
| 20260905092125 | 68 | 58 | 0.0 | 2.0 | 0.00 | 0.00 | 0.00 | 92 | 1015.1 |
| 20260905091624 | 68 | 98 | 2.0 | 2.0 | 0.00 | 0.00 | 0.00 | 92 | 1015.3 |
| 20260905091124 | 68 | 111 | 0.0 | 2.0 | 0.00 | 0.00 | 0.00 | 92 | 1015.4 |
| 20260905090619 | 68 | 110 | 0.0 | 2.0 | 0.00 | 0.00 | 0.00 | 92 | 1015.4 |
| 20260905090114 | 68 | 109 | 2.0 | 3.0 | 0.00 | 0.00 | 0.00 | 93 | 1015.7 |
| 20260905085613 | 68 | 147 | 1.0 | 1.0 | 0.00 | 0.00 | 0.00 | 93 | 1015.7 |
| 20260905085109 | 68 | 97 | 1.0 | 2.0 | 0.00 | 0.00 | 0.00 | 93 | 1015.8 |
| 20260905084608 | 68 | 32 | 2.0 | 3.0 | 0.00 | 0.00 | 0.00 | 93 | 1015.6 |
| 20260905084103 | 68 | 104 | 1.0 | 2.0 | 0.00 | 0.00 | 0.00 | 93 | 1015.5 |
| 20260905083557 | 68 | 118 | 3.0 | 3.0 | 0.00 | 0.00 | 0.00 | 93 | 1015.7 |
| 20260905083054 | 68 | 89 | 2.0 | 3.0 | 0.00 | 0.00 | 0.00 | 93 | 1015.6 |
| 20260905082549 | 68 | 149 | 1.0 | 2.0 | 0.00 | 0.00 | 0.00 | 93 | 1015.8 |
| 20260905082045 | 68 | 120 | 2.0 | 6.0 | 0.00 | 0.00 | 0.00 | 93 | 1015.5 |
| 20260905081544 | 68 | 93 | 2.0 | 2.0 | 0.00 | 0.00 | 0.00 | 93 | 1015.6 |
| 20260905081038 | 67 | 137 | 1.0 | 2.0 | 0.00 | 0.00 | 0.00 | 93 | 1015.7 |
| 20260905080533 | 67 | 152 | 0.0 | 1.0 | 0.00 | 0.00 | 0.00 | 93 | 1015.7 |
| 20260905080028 | 67 | 138 | 1.0 | 5.0 | 0.00 | 0.00 | 0.00 | 93 | 1015.8 |
| 20260905075521 | 67 | 158 | 0.0 | 1.0 | 0.00 | 0.00 | 0.00 | 93 | 1015.9 |
| 20260905075020 | 67 | 108 | 1.0 | 2.0 | 0.00 | 0.00 | 0.00 | 93 | 1015.9 |
| 20260905074510 | 67 | 106 | 2.0 | 3.0 | 0.00 | 0.00 | 0.00 | 93 | 1015.9 |
| 20260905074006 | 67 | 144 | 0.0 | 3.0 | 0.00 | 0.00 | 0.00 | 93 | 1015.9 |
| 20260905073501 | 67 | 143 | 1.0 | 2.0 | 0.00 | 0.00 | 0.00 | 93 | 1015.8 |
| 20260905072955 | 67 | 131 | 1.0 | 1.0 | 0.00 | 0.00 | 0.00 | 92 | 1015.9 |
| 20260905072450 | 67 | 145 | 1.0 | 2.0 | 0.00 | 0.00 | 0.00 | 92 | 1015.9 |
| 20260905071946 | 67 | 145 | 0.0 | 0.0 | 0.00 | 0.00 | 0.00 | 92 | 1015.9 |
| 20260905071443 | 67 | 150 | 0.0 | 1.0 | 0.00 | 0.00 | 0.00 | 92 | 1015.9 |
| 20260905070942 | 67 | 128 | 1.0 | 2.0 | 0.00 | 0.00 | 0.00 | 91 | 1015.9 |
| 20260905070438 | 67 | 208 | 1.0 | 1.0 | 0.00 | 0.00 | 0.00 | 91 | 1016.1 |
| 20260905065937 | 68 | 186 | 0.0 | 1.0 | 0.00 | 0.00 | 0.00 | 91 | 1015.9 |
| 20260905065435 | 68 | 137 | 0.0 | 1.0 | 0.00 | 0.00 | 0.00 | 91 | 1015.7 |
| 20260905064932 | 68 | 124 | 1.0 | 3.0 | 0.00 | 0.00 | 0.00 | 91 | 1015.8 |
| 20260905064432 | 68 | 122 | 0.0 | 0.0 | 0.00 | 0.00 | 0.00 | 91 | 1016.0 |
| 20260905063927 | 68 | 122 | 1.0 | 2.0 | 0.00 | 0.00 | 0.00 | 91 | 1015.9 |
| 20260905063421 | 68 | 122 | 1.0 | 1.0 | 0.00 | 0.00 | 0.00 | 90 | 1016.0 |
| 20260905062918 | 68 | 121 | 0.0 | 1.0 | 0.00 | 0.00 | 0.00 | 90 | 1016.0 |
| 20260905062412 | 68 | 121 | 1.0 | 1.0 | 0.00 | 0.00 | 0.00 | 90 | 1015.9 |
| 20260905061907 | 68 | 121 | 0.0 | 2.0 | 0.00 | 0.00 | 0.00 | 90 | 1016.0 |
| 20260905061401 | 68 | 122 | 0.0 | 1.0 | 0.00 | 0.00 | 0.00 | 89 | 1016.0 |
| 20260905060901 | 68 | 120 | 1.0 | 1.0 | 0.00 | 0.00 | 0.00 | 89 | 1015.7 |
| 20260905060357 | 69 | 121 | 0.0 | 0.0 | 0.00 | 0.00 | 0.00 | 89 | 1015.7 |
| 20260905055856 | 69 | 85 | 2.0 | 2.0 | 0.00 | 0.00 | 0.00 | 89 | 1015.7 |
| 20260905055352 | 69 | 127 | 0.0 | 0.0 | 0.00 | 0.00 | 0.00 | 88 | 1015.7 |
| 20260905054851 | 69 | 127 | 0.0 | 0.0 | 0.00 | 0.00 | 0.00 | 88 | 1015.6 |
| 20260905054348 | 69 | 126 | 0.0 | 0.0 | 0.00 | 0.00 | 0.00 | 88 | 1015.6 |
| 20260905053847 | 69 | 126 | 0.0 | 0.0 | 0.00 | 0.00 | 0.00 | 87 | 1015.6 |
| 20260905053342 | 70 | 126 | 1.0 | 1.0 | 0.00 | 0.00 | 0.00 | 87 | 1015.5 |
| 20260905052838 | 70 | 123 | 0.0 | 0.0 | 0.00 | 0.00 | 0.00 | 86 | 1015.6 |
| 20260905052337 | 70 | 100 | 2.0 | 2.0 | 0.00 | 0.00 | 0.00 | 86 | 1015.4 |
| 20260905051836 | 70 | 143 | 0.0 | 0.0 | 0.00 | 0.00 | 0.00 | 86 | 1015.6 |
| 20260905051332 | 70 | 143 | 0.0 | 0.0 | 0.00 | 0.00 | 0.00 | 86 | 1015.4 |
| 20260905050829 | 71 | 142 | 1.0 | 2.0 | 0.00 | 0.00 | 0.00 | 86 | 1015.2 |
| 20260905050325 | 71 | 132 | 0.0 | 2.0 | 0.00 | 0.00 | 0.00 | 86 | 1015.2 |
| 20260905045826 | 71 | 132 | 0.0 | 1.0 | 0.00 | 0.00 | 0.00 | 85 | 1015.2 |
| 20260905045321 | 71 | 132 | 0.0 | 1.0 | 0.00 | 0.00 | 0.00 | 85 | 1015.3 |
| 20260905044816 | 71 | 131 | 1.0 | 1.0 | 0.00 | 0.00 | 0.00 | 84 | 1015.2 |
| 20260905044311 | 71 | 121 | 0.0 | 2.0 | 0.00 | 0.00 | 0.00 | 84 | 1015.2 |
| 20260905043810 | 71 | 91 | 0.0 | 1.0 | 0.00 | 0.00 | 0.00 | 84 | 1015.3 |
| 20260905043305 | 72 | 92 | 0.0 | 2.0 | 0.00 | 0.00 | 0.00 | 84 | 1015.4 |
| 20260905042804 | 72 | 121 | 1.0 | 2.0 | 0.00 | 0.00 | 0.00 | 83 | 1015.3 |
| 20260905042259 | 72 | 72 | 1.0 | 5.0 | 0.00 | 0.00 | 0.00 | 83 | 1015.4 |
| 20260905041754 | 72 | 119 | 1.0 | 1.0 | 0.00 | 0.00 | 0.00 | 82 | 1015.4 |
| 20260905041250 | 73 | 108 | 1.0 | 2.0 | 0.00 | 0.00 | 0.00 | 82 | 1015.3 |
| 20260905040745 | 73 | 119 | 1.0 | 1.0 | 0.00 | 0.00 | 0.00 | 81 | 1015.2 |
| 20260905040243 | 73 | 129 | 1.0 | 2.0 | 0.00 | 0.00 | 0.00 | 81 | 1015.2 |
| 20260905035738 | 73 | 120 | 1.0 | 5.0 | 0.00 | 0.00 | 0.00 | 82 | 1015.3 |
| 20260905035234 | 73 | 129 | 1.0 | 2.0 | 0.00 | 0.00 | 0.00 | 81 | 1015.4 |
| 20260905034731 | 73 | 169 | 1.0 | 2.0 | 0.00 | 0.00 | 0.00 | 81 | 1015.3 |
| 20260905034231 | 73 | 140 | 1.0 | 3.0 | 0.00 | 0.00 | 0.00 | 81 | 1015.2 |
| 20260905033729 | 73 | 229 | 0.0 | 3.0 | 0.00 | 0.00 | 0.00 | 81 | 1015.3 |
| 20260905033225 | 74 | 109 | 0.0 | 2.0 | 0.00 | 0.00 | 0.00 | 80 | 1015.3 |
| 20260905032724 | 74 | 59 | 2.0 | 2.0 | 0.00 | 0.00 | 0.00 | 80 | 1015.3 |
| 20260905032214 | 74 | 150 | 0.0 | 2.0 | 0.00 | 0.00 | 0.00 | 79 | 1015.1 |
| 20260905031710 | 74 | 68 | 2.0 | 3.0 | 0.00 | 0.00 | 0.00 | 79 | 1015.1 |
| 20260905031205 | 75 | 342 | 2.0 | 5.0 | 0.00 | 0.00 | 0.00 | 79 | 1015.1 |
| 20260905030700 | 75 | 52 | 3.0 | 6.0 | 0.00 | 0.00 | 0.00 | 78 | 1015.1 |
| 20260905030155 | 75 | 48 | 2.0 | 2.0 | 0.00 | 0.00 | 0.00 | 78 | 1014.7 |
| 20260905025650 | 75 | 74 | 1.0 | 5.0 | 0.00 | 0.00 | 0.00 | 78 | 1015.0 |
| 20260905025146 | 76 | 82 | 2.0 | 2.0 | 0.00 | 0.00 | 0.00 | 77 | 1014.7 |
| 20260905024642 | 76 | 53 | 2.0 | 3.0 | 0.00 | 0.00 | 0.00 | 77 | 1014.9 |
| 20260905024137 | 76 | 67 | 3.0 | 5.0 | 0.00 | 0.00 | 0.00 | 77 | 1014.8 |
| 20260905023632 | 77 | 107 | 2.0 | 6.0 | 0.00 | 0.00 | 0.00 | 76 | 1014.7 |
| 20260905023131 | 77 | 153 | 1.0 | 6.0 | 0.00 | 0.00 | 0.00 | 76 | 1014.6 |
| 20260905022630 | 77 | 288 | 3.0 | 3.0 | 0.00 | 0.00 | 0.00 | 76 | 1014.6 |
| 20260905022126 | 77 | 29 | 4.0 | 6.0 | 0.00 | 0.00 | 0.00 | 76 | 1014.6 |
| 20260905021626 | 78 | 173 | 1.0 | 7.0 | 0.00 | 0.00 | 0.00 | 75 | 1014.4 |
| 20260905021122 | 78 | 47 | 3.0 | 6.0 | 0.00 | 0.00 | 0.00 | 75 | 1014.3 |
| 20260905020621 | 78 | 351 | 3.0 | 5.0 | 0.00 | 0.00 | 0.00 | 75 | 1014.5 |
| 20260905020117 | 79 | 22 | 3.0 | 5.0 | 0.00 | 0.00 | 0.00 | 75 | 1014.3 |
| 20260905015615 | 79 | 87 | 2.0 | 3.0 | 0.00 | 0.00 | 0.00 | 74 | 1014.3 |
| 20260905015109 | 79 | 91 | 1.0 | 2.0 | 0.00 | 0.00 | 0.00 | 74 | 1014.2 |
| 20260905014603 | 79 | 150 | 0.0 | 1.0 | 0.00 | 0.00 | 0.00 | 74 | 1014.1 |
| 20260905014059 | 79 | 156 | 1.0 | 2.0 | 0.00 | 0.00 | 0.00 | 74 | 1014.2 |
| 20260905013555 | 79 | 156 | 1.0 | 2.0 | 0.00 | 0.00 | 0.00 | 74 | 1014.1 |
| 20260905013051 | 79 | 129 | 1.0 | 1.0 | 0.00 | 0.00 | 0.00 | 74 | 1014.1 |
| 20260905012550 | 80 | 139 | 0.0 | 1.0 | 0.00 | 0.00 | 0.00 | 74 | 1013.9 |
| 20260905012048 | 80 | 191 | 0.0 | 1.0 | 0.00 | 0.00 | 0.00 | 74 | 1014.1 |
| 20260905011543 | 80 | 152 | 0.0 | 1.0 | 0.00 | 0.00 | 0.00 | 73 | 1013.9 |
| 20260905011039 | 80 | 152 | 0.0 | 2.0 | 0.00 | 0.00 | 0.00 | 73 | 1013.9 |
| 20260905010533 | 80 | 200 | 1.0 | 2.0 | 0.00 | 0.00 | 0.00 | 73 | 1013.8 |
| 20260905010030 | 80 | 211 | 0.0 | 1.0 | 0.00 | 0.00 | 0.00 | 73 | 1014.0 |
| 20260905005525 | 80 | 180 | 0.0 | 0.0 | 0.00 | 0.00 | 0.00 | 73 | 1013.8 |
| 20260905005015 | 80 | 163 | 1.0 | 1.0 | 0.00 | 0.00 | 0.00 | 73 | 1013.7 |
| 20260905004515 | 81 | 163 | 0.0 | 0.0 | 0.00 | 0.00 | 0.00 | 72 | 1013.8 |
| 20260905004010 | 81 | 163 | 0.0 | 0.0 | 0.00 | 0.00 | 0.00 | 71 | 1013.5 |
| 20260905003506 | 81 | 162 | 1.0 | 1.0 | 0.00 | 0.00 | 0.00 | 71 | 1013.8 |
| 20260905003001 | 81 | 153 | 0.0 | 1.0 | 0.00 | 0.00 | 0.00 | 71 | 1013.7 |
| 20260905002456 | 82 | 160 | 1.0 | 2.0 | 0.00 | 0.00 | 0.00 | 70 | 1013.8 |
| 20260905001950 | 82 | 145 | 1.0 | 2.0 | 0.00 | 0.00 | 0.00 | 70 | 1013.7 |
| 20260905001445 | 82 | 138 | 2.0 | 2.0 | 0.00 | 0.00 | 0.00 | 69 | 1013.7 |
| 20260905000939 | 82 | 357 | 4.0 | 5.0 | 0.00 | 0.00 | 0.00 | 69 | 1013.5 |
| 20260905000435 | 83 | 43 | 1.0 | 2.0 | 0.00 | 0.00 | 0.00 | 69 | 1013.4 |
| 20260904235930 | 83 | 48 | 1.0 | 2.0 | 0.00 | 0.00 | 0.00 | 69 | 1013.3 |
| 20260904235426 | 83 | 32 | 2.0 | 3.0 | 0.00 | 0.00 | 0.00 | 68 | 1013.5 |
| 20260904234926 | 83 | 85 | 1.0 | 1.0 | 0.00 | 0.00 | 0.00 | 68 | 1013.4 |
| 20260904234420 | 83 | 84 | 1.0 | 3.0 | 0.00 | 0.00 | 0.00 | 68 | 1013.5 |
| 20260904233916 | 84 | 50 | 2.0 | 3.0 | 0.00 | 0.00 | 0.00 | 68 | 1013.3 |
| 20260904233411 | 84 | 139 | 3.0 | 3.0 | 0.00 | 0.00 | 0.00 | 68 | 1013.1 |
| 20260904232908 | 84 | 160 | 0.0 | 2.0 | 0.00 | 0.00 | 0.00 | 68 | 1013.1 |
| 20260904232404 | 84 | 67 | 1.0 | 7.0 | 0.00 | 0.00 | 0.00 | 68 | 1013.3 |
| 20260904231900 | 84 | 19 | 4.0 | 5.0 | 0.00 | 0.00 | 0.00 | 68 | 1013.1 |
| 20260904231355 | 84 | 184 | 1.0 | 3.0 | 0.00 | 0.00 | 0.00 | 68 | 1013.2 |
| 20260904230850 | 85 | 145 | 1.0 | 5.0 | 0.00 | 0.00 | 0.00 | 68 | 1013.2 |
| 20260904230348 | 85 | 28 | 3.0 | 6.0 | 0.00 | 0.00 | 0.00 | 68 | 1013.0 |
| 20260904225844 | 85 | 132 | 1.0 | 2.0 | 0.00 | 0.00 | 0.00 | 69 | 1013.1 |
| 20260904225342 | 85 | 285 | 2.0 | 6.0 | 0.00 | 0.00 | 0.00 | 68 | 1012.9 |
| 20260904224842 | 86 | 238 | 1.0 | 3.0 | 0.00 | 0.00 | 0.00 | 66 | 1013.0 |
| 20260904224337 | 86 | 214 | 1.0 | 3.0 | 0.00 | 0.00 | 0.00 | 67 | 1012.8 |
| 20260904223837 | 86 | 252 | 2.0 | 5.0 | 0.00 | 0.00 | 0.00 | 66 | 1013.1 |
| 20260904223331 | 87 | 97 | 1.0 | 3.0 | 0.00 | 0.00 | 0.00 | 65 | 1013.0 |
| 20260904222828 | 87 | 152 | 0.0 | 3.0 | 0.00 | 0.00 | 0.00 | 65 | 1012.8 |
| 20260904222328 | 86 | 283 | 1.0 | 3.0 | 0.00 | 0.00 | 0.00 | 65 | 1012.8 |
| 20260904221827 | 86 | 187 | 1.0 | 2.0 | 0.00 | 0.00 | 0.00 | 66 | 1012.6 |
| 20260904221322 | 86 | 316 | 1.0 | 2.0 | 0.00 | 0.00 | 0.00 | 66 | 1012.8 |
| 20260904220818 | 86 | 294 | 2.0 | 3.0 | 0.00 | 0.00 | 0.00 | 66 | 1012.5 |
| 20260904220317 | 86 | 315 | 3.0 | 3.0 | 0.00 | 0.00 | 0.00 | 66 | 1012.7 |
| 20260904215812 | 86 | 273 | 1.0 | 5.0 | 0.00 | 0.00 | 0.00 | 67 | 1012.5 |
| 20260904215307 | 86 | 15 | 3.0 | 5.0 | 0.00 | 0.00 | 0.00 | 67 | 1012.3 |
| 20260904214803 | 86 | 46 | 3.0 | 5.0 | 0.00 | 0.00 | 0.00 | 66 | 1012.5 |
| 20260904214258 | 87 | 240 | 1.0 | 3.0 | 0.00 | 0.00 | 0.00 | 66 | 1012.5 |
| 20260904213756 | 87 | 278 | 1.0 | 5.0 | 0.00 | 0.00 | 0.00 | 66 | 1012.5 |
| 20260904213252 | 86 | 119 | 2.0 | 6.0 | 0.00 | 0.00 | 0.00 | 68 | 1012.4 |
| 20260904212748 | 86 | 332 | 3.0 | 5.0 | 0.00 | 0.00 | 0.00 | 67 | 1012.5 |
| 20260904212248 | 86 | 10 | 3.0 | 3.0 | 0.00 | 0.00 | 0.00 | 69 | 1012.5 |
| 20260904211743 | 86 | 188 | 1.0 | 2.0 | 0.00 | 0.00 | 0.00 | 67 | 1012.6 |
| 20260904211237 | 86 | 73 | 2.0 | 3.0 | 0.00 | 0.00 | 0.00 | 68 | 1012.6 |
| 20260904210733 | 87 | 128 | 1.0 | 2.0 | 0.00 | 0.00 | 0.00 | 67 | 1012.6 |
| 20260904210227 | 86 | 128 | 1.0 | 3.0 | 0.00 | 0.00 | 0.00 | 67 | 1012.7 |
| 20260904205724 | 86 | 278 | 1.0 | 3.0 | 0.00 | 0.00 | 0.00 | 68 | 1012.6 |
| 20260904205220 | 86 | 355 | 3.0 | 5.0 | 0.00 | 0.00 | 0.00 | 69 | 1012.8 |
| 20260904204716 | 86 | 278 | 3.0 | 3.0 | 0.00 | 0.00 | 0.00 | 68 | 1012.5 |
| 20260904204212 | 86 | 160 | 1.0 | 3.0 | 0.00 | 0.00 | 0.00 | 69 | 1012.7 |
| 20260904203707 | 86 | 333 | 4.0 | 6.0 | 0.00 | 0.00 | 0.00 | 68 | 1012.6 |
| 20260904203158 | 87 | 317 | 3.0 | 3.0 | 0.00 | 0.00 | 0.00 | 67 | 1012.5 |
| 20260904202653 | 85 | 172 | 1.0 | 2.0 | 0.00 | 0.00 | 0.00 | 70 | 1012.5 |
| 20260904202150 | 85 | 128 | 3.0 | 6.0 | 0.00 | 0.00 | 0.00 | 71 | 1012.8 |
| 20260904201644 | 85 | 235 | 2.0 | 6.0 | 0.00 | 0.00 | 0.00 | 71 | 1012.6 |
| 20260904201139 | 85 | 290 | 3.0 | 5.0 | 0.00 | 0.00 | 0.00 | 70 | 1012.5 |
| 20260904200638 | 84 | 157 | 2.0 | 2.0 | 0.00 | 0.00 | 0.00 | 71 | 1012.5 |
| 20260904200133 | 84 | 93 | 3.0 | 5.0 | 0.00 | 0.00 | 0.00 | 72 | 1012.7 |
| 20260904195632 | 84 | 1 | 5.0 | 7.0 | 0.00 | 0.00 | 0.00 | 72 | 1012.8 |
| 20260904195126 | 84 | 41 | 3.0 | 5.0 | 0.00 | 0.00 | 0.00 | 72 | 1012.8 |
| 20260904194625 | 85 | 127 | 0.0 | 2.0 | 0.00 | 0.00 | 0.00 | 71 | 1012.6 |
| 20260904194121 | 85 | 69 | 2.0 | 5.0 | 0.00 | 0.00 | 0.00 | 72 | 1012.6 |
| 20260904193615 | 84 | 42 | 4.0 | 5.0 | 0.00 | 0.00 | 0.00 | 73 | 1012.8 |
| 20260904193111 | 84 | 331 | 6.0 | 7.0 | 0.00 | 0.00 | 0.00 | 72 | 1012.8 |
| 20260904192606 | 84 | 30 | 3.0 | 3.0 | 0.00 | 0.00 | 0.00 | 74 | 1012.6 |
| 20260904192102 | 84 | 78 | 3.0 | 3.0 | 0.00 | 0.00 | 0.00 | 74 | 1012.8 |
| 20260904191558 | 83 | 102 | 2.0 | 5.0 | 0.00 | 0.00 | 0.00 | 75 | 1012.6 |
| 20260904191054 | 83 | 80 | 3.0 | 3.0 | 0.00 | 0.00 | 0.00 | 74 | 1012.9 |
| 20260904190549 | 83 | 169 | 1.0 | 5.0 | 0.00 | 0.00 | 0.00 | 75 | 1012.9 |
| 20260904190046 | 83 | 52 | 4.0 | 6.0 | 0.00 | 0.00 | 0.00 | 75 | 1012.8 |
| 20260904185542 | 82 | 199 | 1.0 | 3.0 | 0.00 | 0.00 | 0.00 | 77 | 1012.9 |
| 20260904185036 | 82 | 290 | 0.0 | 3.0 | 0.00 | 0.00 | 0.00 | 77 | 1012.9 |
| 20260904184531 | 81 | 326 | 4.0 | 6.0 | 0.00 | 0.00 | 0.00 | 78 | 1012.9 |
| 20260904184026 | 81 | 101 | 2.0 | 3.0 | 0.00 | 0.00 | 0.00 | 78 | 1012.9 |
| 20260904183521 | 81 | 64 | 2.0 | 5.0 | 0.00 | 0.00 | 0.00 | 78 | 1013.1 |
| 20260904183016 | 81 | 349 | 2.0 | 7.0 | 0.00 | 0.00 | 0.00 | 79 | 1013.0 |
| 20260904182512 | 81 | 330 | 3.0 | 7.0 | 0.00 | 0.00 | 0.00 | 78 | 1013.0 |
| 20260904182012 | 81 | 316 | 4.0 | 8.0 | 0.00 | 0.00 | 0.00 | 79 | 1012.9 |
| 20260904181508 | 82 | 63 | 4.0 | 5.0 | 0.00 | 0.00 | 0.00 | 78 | 1012.7 |
| 20260904181002 | 82 | 80 | 3.0 | 6.0 | 0.00 | 0.00 | 0.00 | 77 | 1012.7 |
| 20260904180502 | 83 | 100 | 3.0 | 7.0 | 0.00 | 0.00 | 0.00 | 77 | 1012.9 |
| 20260904175956 | 83 | 59 | 3.0 | 5.0 | 0.00 | 0.00 | 0.00 | 77 | 1012.8 |
| 20260904175456 | 82 | 66 | 2.0 | 3.0 | 0.00 | 0.00 | 0.00 | 77 | 1012.7 |
| 20260904174950 | 82 | 38 | 4.0 | 6.0 | 0.00 | 0.00 | 0.00 | 78 | 1012.6 |
| 20260904174445 | 82 | 16 | 4.0 | 6.0 | 0.00 | 0.00 | 0.00 | 77 | 1012.6 |
| 20260904173941 | 82 | 41 | 3.0 | 5.0 | 0.00 | 0.00 | 0.00 | 78 | 1012.7 |
| 20260904173442 | 82 | 283 | 5.0 | 8.0 | 0.00 | 0.00 | 0.00 | 77 | 1012.6 |
| 20260904172937 | 82 | 188 | 0.0 | 5.0 | 0.00 | 0.00 | 0.00 | 78 | 1012.4 |
| 20260904172432 | 82 | 14 | 4.0 | 6.0 | 0.00 | 0.00 | 0.00 | 78 | 1012.3 |
| 20260904171927 | 82 | 236 | 3.0 | 5.0 | 0.00 | 0.00 | 0.00 | 79 | 1012.4 |